INTELSAT 14 (IS-14)

Last updated on Fri Oct 11 2024 00:02:39 GMT+0000 (Coordinated Universal Time)

1 36097U 09064A 24284.46585104 -.00000269 00000+0 00000+0 0 9993 2 36097 0.0196 276.6076 0002509 279.8601 305.8382 1.00272217 54534
UTC large
Height (km)
Speed (km/s)
/
Latitude / Longitude
Inclination (degrees)
Orbital Period (minutes)
Azimuth
Elevation
Range (km)
Doppler Factor

Next 0 passes for location: London (51.5072 / 0.1276)

Sorry there are no passes over London.